Seldovia, AK

10:55 AM AKDT on April 29, 2017 (GMT -0800)
Seldovia

Weather History for PASO - November, 2013

Change the Weather History Date:

Thursday, November 21, 2013

  Actual Average (PAHO) Record (PAHO)
Temperature  
Mean Temperature 20 °F -  
Max Temperature 25 °F 36 °F 51 °F (1949)
Min Temperature 15 °F 24 °F 1 °F (2006)
Degree Days  
Heating Degree Days 45    
Moisture  
Dew Point 15 °F    
Average Humidity 84    
Maximum Humidity 96    
Minimum Humidity 68    
Precipitation  
Precipitation 0.37 in - - ()
Sea Level Pressure  
Sea Level Pressure 29.50 in    
Wind  
Wind Speed 9 mph (North)    
Max Wind Speed 15 mph    
Max Gust Speed 25 mph    
Visibility 3 miles    
Events Fog , Snow    
Averages and records for this station are not official NWS values.
T = Trace of Precipitation, MM = Missing Value Source: NWS Daily Summary

Daily Weather History Graph

Daily Weather History Graph

Search for Another Location

Airport or City:

Trip Planner

Search our weather history database for the weather conditions in past years. The results will help you decide how hot, cold, wet, or windy it might be!

Date:

Astronomy

Nov. 21, 2013 Rise Set
Actual Time 9:16 AM AKST 4:28 PM AKST
Civil Twilight 8:26 AM AKST 5:18 PM AKST
Nautical Twilight 7:34 AM AKST 6:10 PM AKST
Astronomical Twilight 6:46 AM AKST 6:58 PM AKST
Moon 8:25 PM AKST (11/21) 12:21 PM AKST (11/21)
Length of Visible Light 8h 51m
Length of Day
7h 11m
Waning Gibbous, 84% of the Moon is Illuminated
Nov 21
Waning Gibbous
Nov 25
Last Quarter
Dec 2
New
Dec 9
First Quarter
Dec 17
Full

Hourly Weather History & Observations

Time (AKST) Temp. Windchill Dew Point Humidity Pressure Visibility Wind Dir Wind Speed Gust Speed Precip Events Conditions
12:53 AM 17.1 °F 5.0 °F 10.0 °F 74% 29.85 in 10.0 mi North 10.4 mph - N/A   Overcast
1:03 AM 17.6 °F 5.7 °F 10.4 °F 73% 29.85 in 10.0 mi North 10.4 mph 17.3 mph N/A   Overcast
1:15 AM 15.8 °F 6.1 °F 8.6 °F 73% 29.85 in 10.0 mi Variable 6.9 mph 18.4 mph N/A   Overcast
1:53 AM 16.0 °F 3.6 °F 9.0 °F 74% 29.84 in 10.0 mi North 10.4 mph 20.7 mph N/A   Overcast
2:08 AM 15.8 °F 5.1 °F 10.4 °F 79% 29.84 in 10.0 mi NNE 8.1 mph 17.3 mph N/A   Overcast
2:35 AM 17.6 °F 5.7 °F 8.6 °F 68% 29.83 in 10.0 mi North 10.4 mph 17.3 mph N/A   Overcast
3:20 AM 15.8 °F 2.7 °F 10.4 °F 79% 29.82 in 4.0 mi North 11.5 mph 18.4 mph 0.00 in Snow Light Snow
3:42 AM 15.8 °F 5.1 °F 10.4 °F 79% 29.81 in 6.0 mi North 8.1 mph - 0.00 in Snow Light Snow
3:53 AM 16.0 °F 5.3 °F 9.0 °F 74% 29.81 in 9.0 mi North 8.1 mph - 0.00 in Snow Light Snow
4:53 AM 16.0 °F 5.3 °F 9.0 °F 74% 29.78 in 10.0 mi North 8.1 mph 18.4 mph 0.00 in   Overcast
5:53 AM 17.1 °F 4.3 °F 9.0 °F 71% 29.75 in 10.0 mi North 11.5 mph 21.9 mph N/A   Overcast
6:32 AM 15.8 °F 2.1 °F 8.6 °F 73% 29.74 in 2.5 mi North 12.7 mph 25.3 mph 0.00 in Snow Light Snow
6:53 AM 16.0 °F 5.3 °F 9.0 °F 74% 29.73 in 3.0 mi NNW 8.1 mph 21.9 mph 0.00 in Snow Light Snow
7:53 AM 16.0 °F 5.3 °F 10.0 °F 77% 29.71 in 4.0 mi North 8.1 mph 16.1 mph 0.00 in Snow Light Snow
8:53 AM 17.1 °F 5.8 °F 10.0 °F 74% 29.68 in 4.0 mi North 9.2 mph - 0.00 in Snow Light Snow
9:09 AM 17.6 °F 10.7 °F 10.4 °F 73% 29.67 in 2.5 mi Variable 4.6 mph - 0.00 in Snow Light Snow
9:18 AM 15.8 °F 8.6 °F 10.4 °F 79% 29.67 in 2.5 mi Variable 4.6 mph - 0.00 in Snow Light Snow
9:53 AM 16.0 °F 7.4 °F 10.9 °F 81% 29.65 in 1.5 mi Variable 5.8 mph - 0.01 in Snow Light Snow
10:15 AM 15.8 °F 6.1 °F 12.2 °F 86% 29.63 in 1.0 mi Variable 6.9 mph 18.4 mph 0.00 in Snow Light Snow
10:24 AM 15.8 °F 4.2 °F 12.2 °F 86% 29.62 in 0.8 mi North 9.2 mph 20.7 mph 0.01 in Snow Light Snow
10:53 AM 17.1 °F 4.3 °F 12.9 °F 84% 29.59 in 0.8 mi North 11.5 mph 19.6 mph 0.03 in Snow Light Snow
11:05 AM 17.6 °F 7.3 °F 12.2 °F 79% 29.59 in 0.8 mi North 8.1 mph 18.4 mph 0.00 in Snow Light Snow
11:18 AM 17.6 °F 4.3 °F 12.2 °F 79% 29.58 in 0.5 mi North 12.7 mph 19.6 mph 0.01 in Fog , Snow Snow
11:44 AM 17.6 °F 5.0 °F 14.0 °F 86% 29.55 in 0.2 mi North 11.5 mph 21.9 mph 0.03 in Fog , Snow Snow
11:53 AM 18.0 °F 3.6 °F 15.1 °F 88% 29.53 in 0.2 mi North 15.0 mph 21.9 mph 0.04 in Fog , Snow Snow
12:08 PM 17.6 °F 5.0 °F 15.8 °F 93% 29.51 in 0.5 mi North 11.5 mph 23.0 mph 0.01 in Fog , Snow Snow
12:23 PM 17.6 °F 5.7 °F 15.8 °F 93% 29.50 in 0.2 mi North 10.4 mph 25.3 mph 0.02 in Fog , Snow Snow
12:53 PM 19.0 °F 6.8 °F 16.0 °F 88% 29.47 in 0.2 mi NNE 11.5 mph 20.7 mph 0.04 in Fog , Snow Heavy Snow
1:15 PM 19.4 °F 7.9 °F 15.8 °F 86% 29.45 in 0.5 mi NNE 10.4 mph 17.3 mph 0.02 in Fog , Snow Snow
1:33 PM 19.4 °F 8.6 °F 15.8 °F 86% 29.43 in 0.5 mi NNE 9.2 mph - 0.03 in Fog , Snow Snow
1:53 PM 21.0 °F 11.4 °F 17.1 °F 85% 29.41 in 0.5 mi NNE 8.1 mph 17.3 mph 0.04 in Fog , Snow Snow
2:33 PM 21.2 °F 12.6 °F 19.4 °F 93% 29.36 in 1.2 mi North 6.9 mph - 0.02 in Snow Light Snow
2:53 PM 23.0 °F 13.1 °F 19.9 °F 88% 29.34 in 1.2 mi North 9.2 mph 17.3 mph 0.03 in Snow Light Snow
3:38 PM 23.0 °F - 21.2 °F 93% 29.29 in 0.8 mi Calm Calm - 0.03 in Snow Light Snow
3:53 PM 23.0 °F - 21.0 °F 92% 29.29 in 0.5 mi Calm Calm - 0.05 in Fog , Snow Snow
4:10 PM 23.0 °F 14.7 °F 21.2 °F 93% 29.27 in 0.5 mi Variable 6.9 mph - 0.02 in Fog , Snow Light Snow
4:31 PM 23.0 °F 15.8 °F 21.2 °F 93% 29.24 in 1.0 mi SSE 5.8 mph - 0.04 in Snow Light Snow
4:42 PM 23.0 °F 18.4 °F 21.2 °F 93% 29.23 in 0.5 mi South 3.5 mph - 0.05 in Fog , Snow Snow
4:53 PM 24.1 °F - 21.9 °F 91% 29.22 in 0.5 mi Calm Calm - 0.07 in Fog , Snow Snow
5:12 PM 24.8 °F - 21.2 °F 86% 29.19 in 1.0 mi Calm Calm - 0.03 in Snow Light Snow
5:21 PM 24.8 °F - 23.0 °F 93% 29.19 in 0.8 mi Calm Calm - 0.04 in Snow Light Snow
5:37 PM 24.8 °F 19.1 °F 23.0 °F 93% 29.18 in 1.0 mi South 4.6 mph - 0.06 in Snow Light Snow
5:53 PM 25.0 °F 19.3 °F 24.1 °F 96% 29.16 in 1.2 mi SSW 4.6 mph - 0.06 in Snow Light Snow
6:03 PM 24.8 °F 20.5 °F 23.0 °F 93% 29.15 in 3.0 mi SSW 3.5 mph - 0.00 in Snow Light Snow
6:12 PM 24.8 °F - 23.0 °F 93% 29.16 in - North - - 0.00 in   Unknown
7:54 PM - - - N/A% 29.10 in - North - - 0.00 in   Unknown
9:53 PM - - - N/A% 29.07 in - North - - N/A   Unknown
10:53 PM - - - N/A% 29.06 in - North - - N/A   Unknown
11:53 PM - - - N/A% 29.07 in - North - - N/A   Unknown